TimePDT,TemperatureF,Dew PointF,Humidity,Sea Level PressureIn,VisibilityMPH,Wind Direction,Wind SpeedMPH,Gust SpeedMPH,PrecipitationIn,Events,Conditions,WindDirDegrees,DateUTC
12:36 AM,75.2,68.0,78,30.03,10.0,SE,9.2,-,0.03,Rain,Light Rain,140,2013-08-19 07:36:00
12:56 AM,75.9,64.9,69,29.99,10.0,South,15.0,27.6,0.03,Rain,Light Rain,190,2013-08-19 07:56:00
1:56 AM,73.9,63.0,68,29.94,10.0,SW,5.8,-,0.01,Rain,Light Rain,220,2013-08-19 08:56:00
2:56 AM,73.0,64.9,76,29.91,10.0,WNW,4.6,-,0.00,,Mostly Cloudy,300,2013-08-19 09:56:00
3:56 AM,73.9,64.9,73,29.94,10.0,South,8.1,-,N/A,,Overcast,180,2013-08-19 10:56:00
4:56 AM,75.0,66.0,73,29.94,10.0,Calm,Calm,-,N/A,,Overcast,0,2013-08-19 11:56:00
5:56 AM,75.0,64.9,71,29.93,10.0,Calm,Calm,-,N/A,,Mostly Cloudy,0,2013-08-19 12:56:00
6:56 AM,73.9,64.9,73,29.93,10.0,South,10.4,-,N/A,,Mostly Cloudy,190,2013-08-19 13:56:00
7:56 AM,77.0,64.0,64,29.93,10.0,SSW,10.4,-,N/A,,Scattered Clouds,200,2013-08-19 14:56:00
8:56 AM,82.0,61.0,49,29.94,10.0,SSW,3.5,-,N/A,,Scattered Clouds,210,2013-08-19 15:56:00
9:56 AM,84.0,61.0,46,29.94,10.0,Variable,3.5,-,N/A,,Mostly Cloudy,0,2013-08-19 16:56:00
10:56 AM,87.1,60.1,40,29.94,10.0,Calm,Calm,-,N/A,,Mostly Cloudy,0,2013-08-19 17:56:00
11:56 AM,89.1,57.9,35,29.93,10.0,Calm,Calm,-,N/A,,Mostly Cloudy,0,2013-08-19 18:56:00
12:56 PM,91.0,57.9,33,29.90,10.0,Variable,3.5,-,N/A,,Mostly Cloudy,0,2013-08-19 19:56:00
1:56 PM,91.9,57.9,32,29.88,10.0,SSW,6.9,-,N/A,,Mostly Cloudy,210,2013-08-19 20:56:00
2:56 PM,93.9,55.9,28,29.84,10.0,South,11.5,-,N/A,,Mostly Cloudy,180,2013-08-19 21:56:00
3:56 PM,95.0,55.9,27,29.81,10.0,SSE,6.9,-,N/A,,Mostly Cloudy,160,2013-08-19 22:56:00
4:56 PM,97.0,57.0,26,29.78,10.0,SSE,9.2,-,N/A,,Mostly Cloudy,160,2013-08-19 23:56:00
5:56 PM,97.0,55.0,24,29.76,10.0,South,10.4,-,N/A,,Mostly Cloudy,180,2013-08-20 00:56:00
6:56 PM,95.0,57.0,28,29.77,10.0,South,12.7,-,N/A,,Mostly Cloudy,180,2013-08-20 01:56:00
7:56 PM,93.0,59.0,32,29.77,10.0,South,15.0,-,N/A,,Mostly Cloudy,190,2013-08-20 02:56:00
8:56 PM,91.0,63.0,39,29.79,10.0,South,10.4,-,0.00,,Mostly Cloudy,190,2013-08-20 03:56:00
9:56 PM,91.0,61.0,36,29.79,10.0,South,10.4,-,N/A,,Mostly Cloudy,190,2013-08-20 04:56:00
10:56 PM,88.0,61.0,40,29.79,10.0,SSW,9.2,-,N/A,,Mostly Cloudy,210,2013-08-20 05:56:00
11:56 PM,88.0,59.0,37,29.76,10.0,South,10.4,-,N/A,,Mostly Cloudy,190,2013-08-20 06:56:00